Theta_e
295 294 294 293 293 292 291 290 290 289 288 288 287 287 286 286 285 285 284 284 284 283 283 283 283 282 281 281 280 279 279 279 278 278 277 277 277 276 276 276 275 275 275 275 275 275 275 275 275 275 275 275 275 275 275 275 275 275 276 276 276 276 276 277 277 277 278 278 278 278 278 278 278 277 277 278 278 278 278 278 278 278 278 279 280
295 294 294 293 292 292 291 290 289 288 287 287 286 286 285 285 284 284 284 283 283 283 283 283 282 281 281 280 279 279 278 278 278 277 277 276 276 276 275 275 275 275 275 275 275 274 274 274 274 274 274 274 274 274 274 274 274 275 275 275 275 275 275 276 276 276 277 277 277 277 277 277 277 277 277 277 277 277 277 277 278 278 278 279 280
295 294 293 293 292 291 290 289 288 287 286 286 285 285 285 284 284 284 283 283 283 282 282 282 281 280 280 279 278 278 278 278 277 277 276 275 275 275 275 275 274 274 274 274 274 274 274 274 274 274 274 274 274 274 274 274 274 275 275 275 275 275 275 275 275 276 276 276 276 276 276 276 276 276 277 277 277 277 277 277 278 278 279 279 280
294 293 293 292 291 290 289 288 287 286 286 285 284 284 284 283 283 283 283 282 282 281 281 281 280 279 279 278 278 278 278 277 276 276 275 275 274 274 274 274 274 274 274 274 274 273 273 273 273 273 273 273 273 273 273 274 274 274 274 274 274 274 274 274 275 275 275 275 275 276 276 276 276 276 276 277 277 277 277 278 278 278 279 279 280
294 293 292 291 290 289 288 287 286 285 285 284 284 283 283 283 283 282 282 282 281 281 280 280 279 278 278 278 278 278 277 276 275 275 275 274 274 274 274 274 274 273 273 273 273 273 273 273 273 273 273 273 273 274 274 274 274 274 274 274 274 274 274 274 274 275 275 275 275 275 275 275 276 276 276 277 277 277 277 278 278 278 278 279 279
293 292 291 290 289 288 287 286 285 284 284 283 283 283 282 282 282 282 282 282 281 280 280 279 278 278 278 277 277 277 276 275 275 274 274 274 274 273 273 273 273 273 273 273 273 273 273 273 273 273 273 273 274 274 274 275 275 275 275 274 274 274 274 274 274 274 275 275 275 275 275 275 276 276 276 277 277 277 277 277 278 278 279 279 280
293 291 290 289 288 287 286 285 284 284 283 283 282 282 282 282 282 282 281 281 280 280 279 278 278 277 277 277 277 276 275 275 274 274 274 273 273 273 273 273 273 273 273 273 273 273 273 274 274 274 274 274 274 274 274 274 274 275 275 275 274 275 275 275 274 274 275 275 275 275 275 275 276 276 276 276 276 277 277 278 278 278 279 280 281
292 291 289 288 287 286 285 284 283 283 282 282 282 281 281 281 281 281 281 280 280 279 278 277 277 277 277 276 276 276 275 274 274 274 273 273 273 273 273 273 273 273 273 274 274 274 274 274 275 275 275 275 275 275 275 275 275 275 275 275 275 275 275 275 275 275 275 275 275 275 275 276 276 276 276 276 277 277 277 278 278 278 279 280 280
291 290 288 287 287 286 284 283 283 282 281 281 281 280 280 280 280 280 279 279 278 277 277 277 276 276 276 276 276 275 274 274 274 273 273 273 273 273 273 273 273 274 274 275 275 275 275 275 275 275 275 276 276 276 276 277 277 277 277 276 276 275 275 275 275 275 275 275 276 276 276 276 276 276 276 277 277 277 277 278 278 278 279 279 279
290 289 287 287 286 285 283 282 282 281 281 280 280 279 279 279 279 279 278 278 277 276 276 276 276 276 276 276 275 274 274 274 274 274 274 274 274 274 274 274 274 275 275 275 275 276 276 276 276 276 276 276 277 277 277 277 277 277 278 278 278 277 277 277 276 276 276 276 276 276 276 276 277 277 277 277 277 277 277 278 278 278 279 279 279
289 288 287 286 285 284 282 281 281 280 280 279 279 279 279 278 278 278 277 277 276 276 276 276 276 276 276 275 275 274 274 274 273 274 274 275 275 275 275 275 275 275 275 276 276 276 276 276 276 276 276 276 276 276 276 276 277 277 277 277 278 278 278 278 277 277 277 277 277 277 277 277 277 277 277 277 277 277 277 278 278 278 279 279 280
288 287 286 285 284 282 281 280 280 279 279 279 278 278 278 278 278 277 276 276 276 276 276 276 276 275 275 274 274 274 274 274 273 274 275 275 276 276 276 276 276 276 276 276 276 276 276 275 275 275 275 275 276 276 276 276 276 276 277 277 277 277 278 278 277 277 278 278 278 278 278 278 278 278 277 278 278 278 278 278 278 279 280 280 280
287 286 285 284 282 281 280 280 279 279 278 278 278 277 277 277 277 276 276 276 276 276 276 275 275 275 274 274 274 274 274 274 273 273 274 275 275 276 276 276 276 276 276 276 275 275 275 275 275 275 275 275 275 276 276 276 276 276 276 277 277 277 277 277 277 277 278 278 278 278 278 278 278 278 278 278 278 278 279 279 279 280 280 281 281
285 285 284 283 282 281 280 279 279 278 278 277 277 277 277 276 276 276 276 276 276 275 275 275 275 274 274 273 273 273 274 273 273 273 274 275 275 276 276 276 276 275 275 275 275 275 275 275 275 275 275 275 275 276 276 276 276 276 277 277 277 277 277 277 277 277 277 278 278 278 278 278 278 278 278 278 279 279 280 280 280 281 281 281 281
284 284 283 282 281 280 279 279 278 277 277 277 276 276 275 275 275 275 275 276 275 275 275 275 274 274 274 273 273 273 273 273 272 272 273 275 275 276 276 275 275 274 274 274 274 274 274 275 275 275 275 275 276 276 276 277 277 277 277 277 277 277 277 277 277 277 277 277 278 278 278 278 278 278 278 278 278 279 279 280 280 280 280 280 280
284 283 282 281 280 279 279 278 277 277 276 276 275 275 274 274 275 275 275 275 274 274 274 274 274 274 273 273 272 273 273 272 272 272 273 274 275 275 275 274 274 274 274 274 274 274 274 275 275 275 275 276 276 276 276 277 277 277 277 277 277 277 277 277 277 277 277 278 278 278 278 278 278 278 279 279 279 279 279 279 279 280 280 280 280
283 282 281 280 280 279 279 278 277 276 275 275 274 274 274 274 274 274 274 274 274 274 274 274 274 273 273 272 271 272 273 272 272 272 273 274 275 275 274 274 274 274 274 274 274 274 274 275 275 275 275 275 275 276 276 276 277 277 277 277 277 277 277 277 277 277 278 278 278 278 279 279 279 280 280 280 280 280 280 280 280 280 280 280 280
282 282 281 280 279 279 278 278 276 275 275 274 274 274 274 274 274 274 274 274 274 274 274 274 273 273 273 271 270 270 272 272 272 272 273 274 274 274 274 274 274 274 274 274 274 275 275 275 275 275 275 275 275 275 276 276 276 276 277 277 277 277 277 277 277 278 278 278 278 278 279 279 280 280 280 281 281 281 281 281 281 281 281 281 281
282 281 280 280 279 278 278 277 276 275 274 274 274 274 273 273 274 274 274 274 274 274 273 273 273 272 272 271 270 270 271 272 271 272 273 274 274 274 274 274 274 274 274 274 275 275 275 274 274 274 274 274 275 275 276 276 277 277 277 277 277 277 277 277 277 277 277 278 278 279 279 279 279 279 280 280 280 281 281 281 282 282 281 282 282
282 281 280 279 278 277 277 276 276 275 275 274 274 273 273 273 273 273 273 273 273 273 273 273 272 271 270 270 270 270 270 271 271 271 273 273 274 274 274 274 274 274 275 275 275 275 274 274 274 274 274 274 274 275 276 276 277 277 277 277 277 276 276 276 277 277 277 278 278 278 279 279 279 280 280 280 280 280 281 281 281 282 282 282 282
281 280 279 278 277 277 276 276 276 275 274 274 273 273 273 273 273 273 273 273 272 272 272 272 271 270 269 269 270 270 270 271 271 271 272 273 273 274 274 274 274 275 275 275 275 274 274 273 273 272 273 274 275 276 276 276 276 276 275 275 275 275 276 276 276 276 276 276 277 278 279 280 280 280 280 280 281 281 281 281 281 281 282 282 282
281 279 278 277 276 275 275 275 275 274 273 273 273 272 272 273 273 273 273 272 272 271 271 270 269 269 269 269 270 270 270 270 271 271 272 272 273 274 274 274 275 275 275 275 274 274 273 272 272 272 273 274 275 275 275 275 274 274 274 274 275 275 275 275 274 274 274 275 277 279 280 281 281 281 281 281 281 281 281 281 281 281 282 282 282
280 278 277 275 275 274 274 273 273 273 273 273 273 272 272 272 272 272 272 272 271 270 269 269 268 268 269 270 270 270 270 270 270 271 271 272 273 274 274 274 275 275 274 274 273 273 272 272 272 273 274 274 274 273 273 273 272 272 273 274 274 274 274 273 272 273 273 274 276 279 281 282 281 281 281 281 282 282 282 282 282 282 282 282 282
278 276 275 274 273 273 273 272 272 272 273 273 273 272 270 271 271 271 271 271 269 268 268 268 268 269 269 270 270 270 270 269 269 270 271 272 273 273 274 274 274 274 274 273 272 272 272 272 273 273 273 272 272 272 272 271 271 271 272 273 273 272 271 271 272 272 273 274 275 277 280 282 282 282 282 282 282 282 282 282 282 282 283 283 283
276 274 273 272 271 271 271 271 271 272 272 272 272 271 270 270 270 269 270 269 268 268 268 268 268 269 269 270 269 269 269 269 269 270 271 271 272 273 273 273 273 273 273 272 271 271 272 272 272 271 271 271 270 270 270 270 270 271 271 271 271 271 270 271 271 272 272 273 274 275 277 279 280 282 283 283 282 282 283 282 283 283 283 284 284
274 273 271 271 270 269 269 269 269 270 270 271 272 272 271 271 270 268 268 268 268 268 269 268 269 269 269 269 269 269 269 269 269 270 271 271 272 272 273 272 272 272 272 271 271 271 271 270 270 269 269 269 269 269 269 269 269 269 270 270 270 270 270 270 271 271 272 273 273 274 275 276 276 278 281 283 283 283 283 283 283 283 284 284 285
272 271 270 269 269 268 268 268 267 268 269 269 270 271 271 271 270 268 267 267 268 268 268 269 269 269 269 269 269 269 269 269 269 270 271 272 272 272 272 272 272 271 270 270 271 271 269 268 268 268 268 268 268 268 268 268 268 268 269 269 269 269 270 270 271 271 272 272 272 273 273 274 274 276 279 282 284 284 283 283 284 284 285 285 285
271 270 269 268 267 268 268 267 266 267 267 268 269 269 270 270 269 268 268 269 268 268 268 269 269 269 269 269 269 269 269 268 269 270 271 272 272 272 272 272 272 271 270 271 271 269 267 266 266 266 266 266 267 267 267 267 268 268 268 268 269 269 270 270 271 271 271 271 272 272 272 273 274 275 277 279 282 284 284 284 284 285 285 285 286
270 269 268 267 267 267 267 267 267 267 267 268 269 269 270 270 269 269 269 270 270 270 269 269 269 269 269 268 268 268 268 269 270 271 272 272 272 272 272 272 272 271 271 271 270 267 266 266 265 265 266 266 266 266 267 267 267 268 268 268 268 269 269 270 270 271 271 271 271 272 272 272 273 274 275 276 278 281 283 285 285 285 286 286 286
269 268 268 267 266 266 266 266 267 267 267 267 267 268 269 269 269 269 269 269 270 270 270 269 269 268 268 268 268 268 269 269 271 272 272 272 272 272 272 271 271 271 271 270 268 266 265 265 265 265 265 265 266 266 266 267 267 267 268 268 268 269 269 270 270 271 271 271 271 271 272 272 273 273 273 274 275 277 280 283 285 286 286 286 287
269 268 267 266 266 266 266 266 266 266 267 267 267 267 267 268 269 269 269 269 270 270 270 270 269 269 268 268 269 269 269 270 271 271 271 271 271 271 271 270 270 270 270 268 266 265 264 264 264 265 265 265 265 266 266 266 267 267 267 268 268 268 269 269 270 270 271 271 271 271 271 271 272 272 272 273 274 276 278 281 284 286 286 286 287
269 268 267 267 266 266 266 266 266 266 266 266 267 267 268 269 269 269 269 270 271 271 271 270 270 270 269 269 268 269 270 271 271 271 271 270 270 270 270 269 269 269 268 266 264 264 264 263 264 264 264 265 265 265 266 266 266 267 267 268 268 268 269 269 270 270 271 271 271 271 271 271 271 271 271 272 273 274 276 278 281 285 287 287 288
270 269 267 267 266 266 266 266 266 266 266 266 266 267 268 269 270 270 270 270 271 271 271 270 270 270 270 270 269 269 270 271 271 270 270 270 270 269 269 268 268 268 267 265 263 263 263 263 263 263 264 264 264 265 265 266 266 267 267 267 268 268 268 269 269 270 271 271 271 271 270 270 270 271 271 271 272 273 274 276 278 283 287 288 288
271 270 268 267 266 266 267 266 266 266 267 266 267 267 268 269 269 269 269 270 270 270 269 269 270 270 269 269 270 270 270 270 270 269 269 269 268 268 268 268 267 267 266 264 262 262 262 262 262 263 263 264 264 265 265 265 266 266 267 267 268 268 268 269 269 270 271 271 271 270 270 270 270 270 270 271 271 271 273 274 276 280 284 288 289
271 270 268 267 267 267 267 266 266 267 267 267 267 268 268 269 269 268 268 269 269 268 267 268 268 268 268 268 268 269 269 269 269 269 268 268 267 267 267 267 267 266 265 264 262 262 262 261 262 262 262 263 264 264 265 265 266 266 267 267 268 268 268 268 269 271 271 271 270 270 270 270 270 270 270 270 270 271 272 273 275 277 281 286 289
270 269 268 268 267 267 267 267 267 267 268 268 268 268 268 268 268 267 267 268 268 266 265 265 266 266 266 267 267 268 268 268 268 268 267 266 266 266 266 266 264 263 263 262 261 261 261 261 261 261 262 262 263 263 264 265 265 266 266 267 267 268 268 269 270 271 271 271 270 270 270 269 269 269 270 270 270 270 271 272 273 275 278 283 287
270 269 268 268 267 267 267 267 267 268 268 267 267 267 267 267 267 266 266 266 266 264 263 264 265 265 265 266 266 267 267 267 266 266 265 265 265 265 265 264 262 261 261 261 260 260 260 261 261 261 261 262 262 263 264 264 265 265 266 267 267 268 268 269 270 271 271 270 270 270 269 269 269 269 269 270 270 270 270 271 272 274 276 280 284
270 269 268 268 267 267 267 267 267 267 267 267 266 266 266 265 265 264 264 264 264 263 262 263 264 264 265 265 266 266 266 265 265 265 265 265 265 265 265 264 262 261 261 261 260 260 260 261 261 261 261 262 262 262 263 264 264 265 266 266 267 268 268 269 271 271 270 270 270 270 269 269 269 269 269 269 270 270 270 271 272 273 275 278 281
269 269 269 268 268 267 267 267 267 266 266 265 265 265 264 264 263 263 263 263 262 262 262 262 263 264 264 265 265 265 265 265 265 265 265 265 264 264 264 263 262 262 261 261 261 260 260 261 261 261 261 261 262 262 263 264 264 265 266 266 267 267 268 269 270 271 270 270 270 269 269 269 269 269 269 269 269 270 270 271 271 272 274 276 279
269 269 268 268 268 268 267 267 266 265 265 264 264 264 263 263 262 262 262 262 261 261 261 262 263 264 264 264 265 264 264 264 265 264 264 264 264 264 263 263 262 262 261 261 261 261 261 261 262 261 261 262 262 262 263 263 264 265 266 267 267 267 268 270 271 271 270 270 270 269 269 269 268 269 269 269 269 270 270 270 271 272 273 275 278
269 269 268 268 268 267 267 266 265 264 264 264 264 263 263 262 262 262 262 261 261 261 261 263 263 263 263 264 265 264 264 264 264 264 263 263 263 263 263 263 262 262 262 261 261 262 262 262 262 262 262 262 262 262 263 263 264 265 266 267 267 268 269 270 271 270 270 270 270 269 269 269 268 269 269 269 269 269 270 270 271 272 273 275 277
269 269 268 268 267 266 265 265 264 264 264 263 263 263 262 262 262 262 261 261 261 261 261 262 262 263 263 264 264 264 263 264 264 263 263 264 263 263 263 263 263 262 262 262 262 262 262 262 262 262 262 262 263 263 263 263 264 265 266 267 267 268 269 271 271 270 270 270 269 269 269 269 268 268 269 269 269 269 269 270 271 272 273 275 278
269 268 268 267 266 265 265 264 264 264 263 263 263 262 262 262 262 262 261 261 261 261 261 261 261 262 262 263 263 263 263 264 264 264 264 264 263 264 264 263 263 263 263 263 263 263 263 263 263 263 263 263 263 263 263 264 264 265 266 267 267 268 270 271 271 270 270 269 269 269 269 268 268 268 268 268 269 269 269 270 271 272 273 275 278
268 268 266 266 265 265 264 264 264 263 263 263 262 261 261 261 261 261 261 261 261 261 262 261 261 261 262 262 262 263 263 263 263 263 263 263 263 264 263 263 263 263 264 264 264 264 264 264 264 264 265 265 265 264 264 264 265 265 266 267 267 268 270 271 271 270 270 269 269 269 268 268 268 268 268 268 269 269 269 270 270 271 273 275 278
267 266 265 265 264 264 263 263 263 263 262 262 261 261 261 261 261 261 260 260 260 261 261 262 262 262 262 262 262 262 263 263 263 263 263 263 263 263 263 263 263 263 264 264 264 264 264 264 264 264 265 265 265 265 265 265 265 266 266 267 267 268 270 271 271 270 269 269 268 268 268 268 268 268 268 268 268 269 269 269 270 271 272 275 278
266 265 265 264 264 263 263 262 262 262 261 261 260 260 260 260 260 260 260 260 260 260 261 261 261 262 262 262 262 262 262 262 263 262 262 263 263 263 262 262 263 263 263 264 264 264 264 264 264 264 265 265 265 265 265 265 265 266 266 267 268 269 270 271 271 270 269 269 268 268 268 268 268 268 268 268 268 268 269 269 270 271 272 274 278
266 265 264 264 263 262 262 261 261 261 261 260 260 259 259 259 259 259 259 260 260 260 261 261 261 262 262 262 262 262 262 262 262 262 262 262 262 262 262 262 262 263 263 263 264 264 264 264 264 265 265 265 265 265 265 265 265 266 267 268 269 269 270 271 271 270 269 268 268 268 268 268 268 268 268 268 268 268 268 269 269 270 272 274 277
265 265 264 264 263 262 261 260 260 260 260 260 259 259 259 259 259 259 259 259 260 261 261 261 261 261 262 262 262 262 262 262 262 262 262 262 262 262 262 262 263 263 263 263 264 264 264 264 264 265 265 265 265 265 265 265 265 266 267 268 269 270 271 271 271 270 269 268 268 268 268 268 268 268 268 268 268 268 268 269 269 270 271 273 276
265 264 263 263 262 261 261 261 261 260 260 259 259 258 258 258 258 258 259 259 260 261 261 261 261 261 261 262 262 262 262 262 262 262 262 262 262 262 262 263 263 263 263 263 263 263 264 264 264 264 265 265 265 265 265 265 266 266 267 268 269 270 271 272 271 270 269 268 268 268 268 268 268 268 268 268 268 268 268 268 269 269 271 272 274
264 263 263 262 261 261 261 261 261 260 259 259 258 258 258 257 257 258 258 259 260 261 261 262 262 261 262 262 262 262 262 262 262 262 262 262 262 262 263 263 263 263 263 263 263 263 263 264 264 264 265 265 265 265 265 265 266 266 267 268 269 270 271 272 271 270 269 268 267 267 267 267 268 268 268 268 268 267 267 268 268 269 270 271 273
262 262 262 261 261 261 261 261 260 260 259 259 258 258 258 257 257 258 259 260 260 261 261 261 261 261 261 262 262 262 262 262 262 262 262 262 262 262 263 263 263 263 263 263 263 263 263 263 264 264 265 265 265 265 266 266 266 267 267 268 269 270 271 272 272 270 269 268 267 267 267 267 267 268 268 268 268 267 267 268 268 268 269 270 271
Wind_Speed
40 41 41 41 40 41 41 40 40 39 38 37 37 35 34 32 30 28 26 24 23 22 21 20 19 18 16 16 16 16 15 15 15 15 16 18 19 21 21 20 21 22 22 23 23 23 25 26 28 28 27 27 28 28 28 29 29 30 29 29 30 27 26 26 18 19 35 41 43 51 45 38 45 43 36 42 46 41 42 45 46 47 47 45 45
41 42 41 41 42 41 41 40 40 39 38 37 36 35 33 31 29 27 25 24 23 22 21 20 18 17 17 17 17 16 16 16 16 16 17 18 20 20 20 20 21 22 22 23 24 24 25 26 28 28 26 27 28 28 29 29 29 30 30 27 28 29 27 28 26 19 26 37 41 45 43 35 41 45 39 41 45 43 43 46 47 48 48 46 46
41 41 40 40 40 39 39 39 39 39 38 37 36 35 33 31 29 27 25 24 23 22 21 19 18 17 17 18 17 16 16 16 16 16 17 19 20 20 20 21 22 23 23 24 25 25 25 27 28 27 26 26 28 29 29 30 29 29 30 28 27 32 31 29 31 26 25 34 39 41 39 35 39 43 40 41 43 41 43 46 47 48 47 45 45
38 38 38 38 37 37 38 38 39 39 38 37 36 34 33 31 29 27 25 24 23 22 20 19 19 18 19 18 17 16 16 16 16 16 17 19 20 21 21 21 22 23 24 25 25 25 26 27 27 26 26 27 29 29 28 28 30 30 31 32 31 33 34 32 33 33 30 31 36 39 38 37 39 40 38 40 42 40 42 45 44 46 48 47 47
36 36 36 36 36 37 38 38 39 39 38 37 36 35 33 31 29 27 26 25 23 22 21 20 20 20 19 18 17 16 15 15 16 17 18 19 20 21 21 21 23 23 24 26 25 26 26 27 28 26 26 28 28 28 28 28 31 32 31 33 33 32 34 33 34 36 35 33 34 38 38 35 37 39 36 36 38 38 41 44 43 45 47 47 46
35 35 35 36 37 38 38 39 39 39 38 37 36 35 34 32 31 29 28 27 25 24 22 21 20 20 19 17 16 15 15 15 16 18 19 19 19 20 21 21 23 23 24 25 25 26 26 26 28 26 26 28 29 29 32 33 33 34 33 34 35 35 35 35 36 37 38 37 36 37 36 33 34 36 33 33 35 36 37 40 41 41 40 42 43
35 35 35 36 36 38 39 39 39 39 38 37 37 36 34 33 32 31 29 28 26 24 23 21 20 19 17 16 15 15 15 15 16 17 18 18 18 19 20 21 22 23 24 25 25 25 26 26 27 27 27 30 32 33 34 33 33 33 34 35 35 35 36 37 38 38 37 37 36 34 34 34 34 35 33 33 35 35 33 32 34 36 35 36 39
35 35 36 35 36 38 39 39 39 39 38 37 37 36 35 33 32 30 29 27 25 24 23 21 19 17 16 16 15 15 15 15 16 16 17 17 17 18 20 20 22 23 23 23 23 23 24 25 26 28 30 31 32 33 32 31 32 34 35 35 36 37 37 36 36 35 34 35 34 33 33 34 34 33 32 30 27 28 31 29 30 33 32 35 40
35 35 36 36 37 38 38 38 38 38 37 37 37 36 34 33 31 29 27 26 24 23 21 19 18 17 16 16 15 14 14 14 15 15 15 16 16 18 19 19 20 21 21 20 21 21 22 24 25 26 28 29 30 31 32 33 34 36 37 35 34 35 35 33 32 31 30 29 28 29 28 27 29 28 27 28 25 25 31 32 31 34 33 36 42
35 36 37 37 37 37 37 37 37 37 37 37 36 35 34 32 30 29 27 25 24 22 20 19 17 17 16 15 14 13 13 14 14 13 14 15 17 18 18 18 18 18 20 20 21 22 22 24 25 26 27 30 31 33 34 35 36 37 38 37 36 34 32 31 30 28 27 25 24 25 20 19 26 28 27 32 33 31 33 32 30 34 32 28 35
36 37 36 35 36 36 37 36 36 36 36 36 35 35 34 33 31 29 27 25 24 22 20 19 17 16 15 14 13 13 13 14 13 13 14 15 16 17 16 17 18 18 20 21 21 21 22 24 25 27 28 30 31 32 34 35 36 38 39 40 40 39 37 34 31 30 28 25 25 26 20 19 28 32 31 35 34 32 34 33 31 30 25 17 19
34 34 33 34 35 36 36 36 36 36 36 36 36 35 35 34 32 30 28 26 24 21 19 18 17 15 14 13 13 13 13 13 12 13 15 14 15 16 16 17 18 19 19 20 20 21 23 25 26 27 28 29 30 32 34 37 38 39 41 42 42 43 42 40 38 35 33 30 29 28 24 23 29 33 32 34 35 35 35 35 32 28 23 16 13
33 32 31 33 34 34 34 35 35 35 35 36 36 35 34 33 32 30 28 25 23 21 19 18 16 15 14 13 12 12 12 11 11 12 14 14 14 14 16 17 18 18 18 18 20 22 24 26 28 28 29 29 32 34 35 37 39 40 41 42 41 42 42 42 43 42 41 39 36 35 33 30 29 31 31 32 34 33 30 30 30 26 23 21 19
31 30 31 33 34 34 35 35 35 34 35 36 35 35 34 33 31 29 27 25 23 21 19 18 16 14 13 12 11 12 12 10 9 11 12 13 13 14 15 16 16 17 18 18 21 23 24 27 29 31 31 31 32 33 35 38 41 41 42 42 41 42 42 43 45 46 46 45 43 44 45 41 39 40 39 37 36 33 28 27 27 24 27 32 33
31 32 33 34 35 36 36 36 36 36 36 37 36 35 34 32 30 28 26 25 23 21 19 17 15 13 11 11 11 12 11 9 8 9 11 11 12 13 14 15 15 16 18 19 21 23 25 27 30 32 33 33 33 33 36 40 42 43 45 44 42 41 40 40 41 42 44 46 46 49 50 48 47 47 46 45 43 42 41 42 40 37 37 37 36
32 34 34 35 37 39 39 39 38 38 38 37 36 35 34 32 30 28 26 24 22 20 18 16 14 11 10 10 12 11 9 7 6 7 9 10 11 12 13 14 15 17 18 20 22 23 25 27 29 31 33 34 35 36 37 40 42 42 43 43 45 44 42 42 44 45 46 48 48 50 50 50 49 49 49 49 47 46 46 46 44 39 32 24 20
33 34 35 37 39 41 41 41 39 39 39 39 38 37 35 33 30 28 27 24 22 20 17 14 12 10 9 10 11 10 7 5 4 5 8 9 11 12 13 15 16 18 20 21 22 24 25 26 28 31 34 35 36 38 38 38 41 42 42 44 47 47 46 46 46 46 46 48 50 52 52 53 52 53 53 52 51 49 42 34 31 27 20 14 12
33 35 37 39 41 41 42 43 42 41 41 40 40 38 35 33 30 28 27 24 22 19 16 13 12 10 10 10 10 9 6 3 2 5 8 9 11 12 14 16 18 19 21 22 22 24 25 26 27 30 33 34 36 38 37 38 41 43 42 41 40 40 39 40 40 41 43 46 48 50 51 52 53 53 53 51 51 49 41 33 32 26 17 11 10
35 36 37 39 40 41 42 42 43 43 41 40 40 37 34 32 30 27 25 23 20 18 15 13 12 10 10 9 8 7 5 1 1 4 8 9 11 13 15 17 18 20 21 23 23 24 25 27 27 28 31 33 35 37 38 39 42 43 41 37 34 34 37 38 38 41 43 43 43 43 45 48 48 48 48 48 47 47 44 41 38 30 19 12 12
32 33 34 36 38 39 40 41 42 42 41 39 37 35 34 31 29 27 24 22 19 17 16 14 12 11 10 8 6 5 3 1 3 4 8 9 11 12 15 17 19 21 21 23 25 26 26 26 26 26 29 33 35 38 40 40 42 42 39 34 31 35 41 42 41 41 42 41 42 43 44 44 44 42 42 42 42 43 44 43 40 36 27 19 17
31 33 34 36 37 38 39 41 41 40 40 39 36 33 31 30 29 27 25 22 19 17 15 13 12 10 8 6 4 3 1 2 3 5 8 9 10 12 15 17 20 21 22 22 24 25 25 25 26 27 30 34 37 39 40 41 41 39 37 34 34 39 43 43 41 41 40 39 41 43 43 41 39 38 37 37 38 39 40 41 41 41 37 29 24
33 35 36 37 38 38 38 39 41 40 40 39 37 33 31 30 29 27 24 22 20 18 15 13 11 9 7 6 5 3 1 1 4 6 7 9 10 12 14 16 18 21 22 23 23 23 24 26 27 29 33 36 39 39 39 40 40 37 35 36 38 42 43 41 39 38 36 35 36 37 35 32 31 31 33 35 36 37 39 40 41 43 43 42 38
35 35 37 37 38 38 39 40 41 41 40 39 38 35 32 30 28 26 24 23 20 17 15 14 12 9 7 6 5 2 1 2 4 5 7 9 10 11 13 15 17 19 21 22 23 23 24 26 27 31 35 37 38 38 38 38 37 36 36 38 39 40 40 37 35 33 33 32 33 32 28 25 25 26 28 31 34 35 37 39 41 43 44 46 47
36 36 37 38 37 38 40 41 42 41 41 40 38 36 33 31 29 26 24 23 21 19 17 15 13 11 9 7 6 4 3 3 3 4 6 9 10 11 13 15 17 19 20 22 22 23 24 27 30 33 35 35 35 36 35 34 34 36 38 38 38 37 35 33 31 29 30 29 28 27 26 23 24 25 28 31 33 34 35 36 37 40 42 43 45
36 36 37 37 38 39 40 41 41 41 41 41 40 38 35 32 30 27 25 23 22 20 17 16 15 13 11 8 6 4 4 3 3 3 6 8 9 10 13 15 16 18 19 21 22 22 25 28 31 31 31 32 33 33 32 32 32 35 36 36 35 34 32 31 30 28 27 26 25 26 27 27 26 27 31 35 34 32 32 33 34 36 38 38 39
35 35 37 38 39 42 42 41 40 40 40 40 39 39 38 35 32 29 26 23 21 20 19 17 16 14 12 10 8 5 4 3 2 4 7 8 9 10 13 15 16 16 18 19 20 21 24 26 27 27 27 29 30 30 31 32 33 33 33 33 33 32 31 30 29 26 25 25 26 26 27 29 31 32 32 32 32 30 29 29 29 30 32 32 31
34 35 38 38 41 45 46 43 41 40 39 37 36 36 37 36 33 31 28 24 21 20 19 18 17 16 14 11 9 6 4 4 3 5 8 8 9 11 13 14 15 16 17 19 19 20 23 23 23 24 26 27 27 28 29 31 32 32 32 33 32 32 31 31 30 27 26 26 27 28 29 31 31 30 30 27 27 28 28 27 25 25 28 28 24
35 37 38 40 44 47 48 47 44 42 40 38 37 37 36 34 32 31 30 29 26 23 21 20 19 18 17 14 11 8 6 5 4 5 8 8 9 12 13 14 15 15 17 18 19 20 22 22 22 24 25 26 27 28 28 29 31 31 32 33 33 33 32 31 30 28 26 26 26 27 28 28 28 27 27 27 25 25 26 27 25 25 28 25 18
35 36 36 40 45 46 46 47 47 44 41 38 37 37 37 34 31 29 28 28 27 25 24 22 21 19 17 15 13 10 8 5 3 5 6 7 9 11 12 13 13 14 15 16 18 20 21 22 23 24 25 25 27 27 27 29 30 31 32 33 33 33 32 30 30 29 28 26 25 25 25 25 25 26 27 26 26 26 26 25 25 25 26 22 14
33 33 34 40 46 47 45 45 46 46 43 38 33 31 29 27 27 27 25 23 20 19 19 20 20 18 16 15 12 9 7 3 3 3 4 6 7 9 11 11 11 12 13 14 17 19 20 20 22 22 23 24 25 25 27 28 29 30 32 33 33 33 32 31 30 31 31 28 25 24 24 23 23 24 25 25 25 26 26 27 27 26 22 16 11
31 31 33 41 49 49 46 44 43 42 41 39 37 34 27 20 19 22 23 20 18 16 16 16 16 16 14 13 11 8 5 2 1 1 3 5 7 9 10 10 10 11 12 13 16 18 18 19 20 21 22 23 23 25 27 28 28 29 31 32 33 33 32 32 32 33 32 30 26 24 24 23 22 23 25 25 25 25 26 27 26 24 22 17 11
33 32 36 43 49 50 48 46 44 41 38 36 37 36 32 25 19 17 18 18 16 16 16 16 15 15 13 12 10 8 6 3 1 2 3 4 7 8 9 9 9 10 12 14 16 17 18 18 20 21 22 22 23 25 27 27 28 29 30 30 31 33 33 33 34 34 31 28 27 26 26 25 23 24 25 25 24 24 24 24 24 22 20 18 15
38 35 38 44 48 49 48 47 46 43 38 35 33 32 31 31 28 24 21 18 16 15 15 14 15 15 14 11 10 8 6 4 3 3 3 5 7 8 8 8 8 10 13 17 17 16 17 18 19 20 22 22 24 26 27 28 29 30 30 30 31 33 35 35 35 33 30 29 28 28 28 26 24 24 25 24 23 23 22 22 23 22 17 14 13
43 40 44 50 51 49 48 49 49 45 38 34 33 30 29 32 32 29 25 23 20 17 15 14 14 15 14 12 9 8 7 5 4 4 4 5 6 6 7 8 10 12 15 18 17 16 17 18 19 20 22 23 25 26 27 29 30 30 30 32 32 34 36 36 34 32 31 30 30 29 28 28 25 23 23 24 23 23 22 21 21 18 13 10 10
42 40 44 51 53 53 51 51 50 44 37 34 33 31 30 30 30 27 26 26 24 20 18 17 15 14 14 13 10 7 7 6 5 5 5 5 4 5 7 10 13 16 17 18 18 18 19 19 20 22 23 24 26 27 27 30 31 31 31 32 33 34 36 35 33 33 33 32 31 30 29 28 26 24 24 24 22 21 20 20 20 18 15 12 10
38 36 39 45 49 51 51 50 47 43 38 34 33 31 31 31 29 26 25 26 24 22 21 20 17 14 14 13 11 8 6 6 6 6 5 4 4 6 8 11 14 15 16 18 18 19 20 20 21 23 25 25 27 28 29 30 32 32 33 33 32 33 35 34 33 34 35 33 31 31 30 28 27 26 24 23 22 22 21 21 21 20 19 18 15
39 38 41 43 44 46 49 49 46 41 37 34 32 30 29 29 28 27 26 25 24 23 22 21 20 17 14 14 14 12 8 7 6 5 4 3 4 7 10 11 12 12 14 16 17 19 21 22 23 24 26 27 28 29 30 31 32 33 34 35 34 34 35 35 34 35 36 34 32 31 30 28 27 26 24 22 23 23 23 23 22 21 22 24 20
41 40 42 43 42 45 48 46 41 37 35 34 33 31 29 28 27 26 26 25 25 25 23 22 22 21 17 15 14 13 11 8 7 6 4 4 5 8 10 11 12 12 13 16 17 19 21 23 24 25 26 27 29 30 30 32 33 34 35 35 35 35 35 35 35 36 36 34 33 32 31 29 28 27 25 23 23 23 24 24 22 19 19 20 17
38 37 38 40 42 45 44 39 35 35 35 34 32 31 29 27 25 24 24 24 24 24 24 23 22 21 18 16 14 13 11 8 7 6 5 5 6 8 10 11 12 12 14 16 18 19 21 24 25 26 27 28 29 30 31 32 33 35 35 35 35 36 35 34 35 37 37 35 35 34 32 30 29 28 26 23 23 24 24 24 23 20 17 15 15
35 33 35 40 41 41 38 35 34 34 34 32 31 30 29 27 26 25 24 23 23 22 23 23 22 20 18 15 13 11 10 8 8 6 5 6 7 8 10 10 11 13 14 16 18 20 22 24 25 27 28 29 30 31 32 33 34 35 35 34 35 36 36 34 35 38 38 37 36 35 33 32 31 29 26 24 23 24 25 25 25 23 21 19 20
33 31 33 37 38 35 33 31 31 32 32 31 30 30 28 28 27 26 25 23 23 22 22 22 21 20 17 13 9 8 8 8 8 7 6 6 7 8 9 10 11 13 14 16 18 20 22 24 26 27 28 29 30 31 33 34 34 34 35 35 36 36 35 33 36 39 40 39 38 37 35 34 32 29 27 26 25 26 26 25 24 24 23 23 23
33 31 32 33 33 33 31 29 29 30 30 29 28 28 29 30 29 28 26 25 24 24 23 22 21 20 16 11 8 8 8 9 8 7 6 7 7 8 9 10 11 13 14 16 18 20 22 24 25 27 28 29 31 32 33 34 34 35 35 35 35 35 33 32 36 40 41 39 39 39 37 36 33 30 29 28 27 26 25 24 24 23 22 22 23
34 33 32 31 31 30 30 31 31 30 29 28 28 29 30 30 29 28 26 25 24 24 24 23 22 20 16 11 10 11 10 9 8 8 7 7 7 8 9 10 11 12 14 16 17 19 22 23 25 27 28 29 30 31 32 33 34 34 35 35 36 35 33 32 35 40 41 41 41 41 39 37 35 32 30 29 28 27 26 24 23 23 22 21 22
34 32 32 31 31 31 31 32 33 31 28 29 28 28 29 29 28 27 26 25 24 24 24 24 23 21 18 15 13 13 12 10 9 8 7 6 6 7 8 8 10 12 13 15 17 19 20 23 25 27 28 29 30 31 32 33 34 34 35 36 36 36 34 33 36 41 43 42 42 42 41 39 37 34 31 31 31 29 27 26 24 23 23 22 19
35 34 33 32 32 31 30 30 30 29 30 30 29 27 27 28 26 26 26 25 24 24 24 24 24 22 19 17 16 14 13 11 10 9 7 6 6 6 6 7 9 11 12 14 16 18 20 22 25 26 28 30 31 32 33 34 35 35 36 36 36 35 34 35 39 43 45 44 43 42 41 39 38 36 33 33 32 29 27 27 26 24 22 20 16
35 36 36 34 32 31 31 32 32 32 32 31 28 26 25 25 25 26 26 26 26 26 25 25 24 22 20 19 17 15 13 12 10 9 7 6 5 4 5 7 8 10 11 13 15 18 20 22 24 25 27 30 31 32 33 34 35 36 37 37 36 37 37 38 41 44 46 45 44 42 41 40 39 37 35 34 33 30 28 28 27 24 22 21 18
36 36 36 36 35 33 32 33 34 33 31 28 26 26 25 24 24 25 25 25 26 26 26 25 24 22 20 19 16 14 13 12 10 9 7 5 3 3 5 7 8 9 11 12 14 17 19 21 23 24 26 28 30 32 34 34 35 37 38 38 38 41 42 41 41 45 47 46 44 42 41 40 39 38 37 35 33 31 29 28 27 25 23 22 20
36 35 36 38 40 39 36 34 33 30 27 26 26 25 25 24 24 24 25 25 26 26 25 25 23 21 19 17 15 14 13 11 9 8 6 4 3 3 5 7 8 10 11 12 14 16 18 21 23 24 25 27 29 31 33 35 36 37 37 38 41 46 46 41 41 46 49 47 44 43 42 40 39 38 38 36 34 31 28 28 27 26 25 23 21
34 35 37 39 41 41 39 36 31 28 27 27 26 25 24 24 24 24 24 25 25 25 25 24 22 20 18 17 15 13 12 11 9 8 6 4 3 4 5 7 8 10 12 13 14 16 18 21 23 24 25 27 29 31 33 35 36 37 37 38 43 47 46 41 40 46 50 48 44 43 43 41 40 39 38 37 35 33 29 28 28 27 26 23 21
36 40 41 39 36 35 34 32 29 28 27 27 26 25 24 24 23 24 24 24 24 24 23 22 21 19 17 16 14 13 12 10 9 7 5 4 4 5 6 7 9 11 12 14 15 16 18 20 23 24 25 27 28 30 32 35 36 37 38 39 42 45 45 41 40 45 50 48 44 43 43 42 41 40 38 37 37 35 31 29 29 29 26 23 21
38 41 41 38 34 32 31 30 29 28 27 26 26 25 24 23 24 25 25 24 24 24 22 21 20 18 16 15 13 12 11 10 8 6 5 4 4 5 6 8 10 11 13 15 16 17 18 20 23 25 26 26 28 30 32 34 36 37 37 39 41 43 44 41 39 42 47 48 44 43 44 43 41 41 40 38 38 36 33 31 31 29 26 23 21
Wind_Direction
204 202 202 201 200 199 198 197 196 195 195 195 195 195 197 198 200 201 203 207 213 217 222 227 232 238 244 250 254 257 262 264 265 266 265 267 268 268 271 273 273 276 279 280 281 280 278 277 277 277 278 278 277 278 276 274 273 269 265 265 265 262 261 262 260 271 276 276 279 283 287 293 292 290 290 290 289 288 286 285 285 286 286 285 284
204 203 200 199 200 198 195 194 193 193 192 193 194 194 196 197 198 200 202 207 213 217 222 226 231 237 243 247 251 254 259 261 262 263 263 265 267 268 271 272 274 276 277 278 279 279 278 276 276 278 278 277 277 277 277 275 273 269 266 263 264 265 261 261 264 268 276 277 277 281 285 289 288 288 291 289 287 287 286 285 286 286 285 284 283
205 203 199 198 198 195 192 191 190 191 190 191 193 193 194 196 197 199 202 206 211 216 220 225 230 236 240 245 248 252 257 260 261 262 263 265 266 267 269 271 272 273 274 276 278 277 276 275 275 277 278 277 277 276 276 275 273 270 270 269 268 269 265 260 262 266 271 276 276 278 284 286 285 286 289 286 285 285 284 284 284 285 285 284 282
205 201 198 196 194 191 190 189 189 189 190 190 191 192 194 194 196 199 201 205 209 213 219 224 228 233 236 241 246 251 255 258 260 262 262 262 263 265 268 269 270 271 273 274 275 275 274 273 275 277 277 276 276 276 274 273 273 272 272 273 270 269 267 260 258 261 265 270 273 275 279 282 282 284 287 285 282 282 282 283 284 283 283 283 282
203 200 196 192 190 190 189 188 189 190 189 190 190 191 192 192 194 197 199 203 207 212 217 221 226 230 235 240 246 250 254 256 257 259 260 261 262 265 267 269 270 272 273 273 273 273 273 273 275 277 277 275 273 274 274 274 276 275 272 271 269 267 266 262 257 258 260 263 268 273 274 275 277 279 282 283 282 283 284 283 284 283 282 282 282
201 198 195 191 188 189 189 189 190 190 189 189 189 190 190 191 193 196 199 202 205 209 214 219 224 229 233 240 244 248 251 252 254 257 260 261 262 265 267 269 270 271 272 272 273 273 273 274 276 276 274 272 272 273 275 273 273 273 270 268 268 267 265 262 259 258 260 261 263 269 272 270 272 275 275 277 280 282 285 286 284 282 282 283 282
198 196 194 191 189 189 190 190 190 189 188 188 187 189 190 191 193 195 198 201 203 207 211 216 223 227 232 238 242 247 249 251 254 258 261 263 265 267 269 269 270 271 272 273 273 273 273 273 273 273 271 272 274 272 270 268 267 269 269 266 265 266 264 263 261 259 260 262 262 266 270 268 269 272 271 273 276 276 279 284 284 283 284 283 282
195 194 193 191 191 191 191 191 190 189 187 186 186 187 188 189 191 193 196 199 202 207 210 213 219 225 231 237 241 245 249 251 255 259 262 266 268 268 268 268 270 272 273 274 273 272 272 271 270 270 270 271 270 268 267 269 270 270 269 265 262 263 263 263 262 259 259 261 261 262 265 266 266 269 270 268 269 270 271 276 280 282 285 284 283
192 192 191 192 193 192 190 189 189 187 185 184 183 184 185 186 188 190 194 197 201 205 208 211 217 223 229 236 240 244 248 252 257 262 266 270 270 269 270 271 272 274 274 274 273 272 273 272 270 272 273 273 273 274 275 278 279 279 279 276 269 263 261 261 260 259 258 260 261 261 262 262 261 263 267 264 259 265 272 273 275 278 282 284 282
191 191 192 194 193 190 188 187 186 184 183 181 180 180 181 182 184 187 191 196 200 203 206 210 215 221 227 233 237 241 248 253 259 265 265 267 271 273 274 274 272 272 275 277 278 277 277 277 277 279 280 280 282 283 283 283 284 284 284 284 281 276 271 268 264 262 260 259 261 261 259 260 258 253 257 261 261 265 271 270 271 277 281 282 282
192 192 193 192 190 187 186 184 183 182 180 179 178 178 179 181 183 186 190 194 198 201 205 209 214 221 226 230 235 239 247 255 261 264 261 262 269 272 273 274 273 274 277 279 281 283 284 283 283 284 285 285 285 286 286 286 286 286 285 285 284 282 280 277 274 272 270 267 265 262 256 259 261 255 254 261 263 263 265 265 267 272 276 276 282
192 192 191 189 187 185 183 181 179 180 178 177 177 178 179 181 182 186 189 192 196 198 204 208 212 218 222 226 234 242 251 259 263 262 262 264 270 273 274 276 277 279 281 282 285 288 289 288 287 287 287 288 289 288 288 289 288 288 288 287 285 282 280 278 276 275 274 274 273 268 261 261 263 259 257 260 263 262 262 263 263 264 267 268 270
190 190 188 186 184 182 181 179 178 178 177 177 177 177 179 180 182 186 189 191 194 197 202 207 209 213 218 224 235 246 256 264 266 263 264 269 275 278 280 281 282 283 285 288 289 289 291 292 292 291 290 292 293 291 290 290 290 290 290 288 285 283 281 279 277 276 275 274 274 272 269 268 268 265 262 259 259 259 257 258 260 257 259 264 264
187 185 184 184 182 180 179 178 177 177 177 177 177 178 180 181 182 186 187 188 192 196 198 202 206 210 216 225 237 249 259 267 270 267 269 275 282 286 287 286 286 287 289 290 290 291 293 293 293 293 294 295 295 293 293 294 294 295 293 290 286 284 282 280 277 276 273 271 271 272 271 270 269 269 270 267 262 260 259 260 261 260 262 266 269
183 183 183 182 181 179 179 178 177 177 177 177 177 178 179 180 181 183 185 188 191 194 196 199 204 208 215 227 239 250 262 271 274 271 275 283 290 293 293 291 290 291 291 291 292 293 294 294 294 295 296 296 296 296 298 298 298 297 295 292 290 287 284 280 278 276 273 269 266 266 267 267 266 267 268 267 263 263 264 264 264 265 268 270 270
183 183 182 181 180 180 179 178 177 177 177 177 176 176 177 179 181 182 183 186 189 191 194 197 202 207 215 228 240 251 267 277 272 271 282 293 297 297 297 296 296 296 294 294 295 295 295 296 298 298 298 299 299 301 302 301 300 298 296 295 293 291 286 283 283 281 279 275 270 266 266 267 266 265 264 262 260 260 262 262 261 261 263 266 267
185 183 182 182 181 181 180 178 177 176 177 177 177 177 178 179 181 181 180 181 184 187 191 194 198 207 215 226 240 253 268 277 273 280 291 297 300 301 300 299 299 298 297 298 298 297 297 299 300 302 301 301 302 304 304 304 303 300 297 294 291 289 287 286 285 284 282 279 276 274 273 272 270 269 267 264 262 259 257 255 253 250 251 256 259
186 184 185 184 182 182 181 180 178 177 177 179 178 177 177 177 179 180 180 180 182 184 187 191 196 204 216 226 237 250 266 282 296 294 295 297 301 303 302 300 299 299 302 302 300 299 300 302 303 303 302 302 304 305 306 305 302 298 295 292 289 287 290 292 292 290 288 284 280 277 275 273 271 270 269 267 266 263 258 255 252 249 247 251 253
188 186 186 184 182 182 182 181 180 179 178 179 178 176 176 176 176 178 179 179 179 180 183 188 195 203 217 228 230 236 254 308 358 300 294 299 301 301 303 302 299 301 304 303 303 305 305 305 305 304 304 305 306 307 307 305 303 300 298 296 293 293 298 300 297 294 291 287 283 278 273 271 269 266 264 264 265 263 260 258 257 253 249 250 253
189 187 184 182 181 181 182 182 181 179 178 178 177 175 174 173 173 174 175 176 176 180 182 186 195 206 216 221 215 213 236 353 9 309 292 297 300 301 305 305 302 302 304 306 308 310 309 308 307 306 308 309 308 308 309 308 307 306 304 301 298 299 301 300 298 297 296 293 289 282 275 271 267 262 260 259 258 257 257 256 256 252 249 249 249
185 183 181 180 180 180 181 182 180 179 178 175 172 171 171 171 172 172 173 173 174 178 181 186 198 207 207 203 194 182 187 345 331 300 291 295 301 304 308 307 306 307 309 310 311 311 311 311 309 308 310 311 311 312 312 312 312 310 306 303 300 301 303 304 304 306 303 296 291 284 274 267 262 257 255 255 254 253 253 253 251 250 248 246 247
181 179 177 177 177 177 178 179 178 176 175 172 169 167 169 172 173 172 171 171 173 176 180 187 196 197 189 187 186 164 138 271 286 287 292 298 302 307 310 311 313 314 314 314 313 311 312 311 309 309 313 315 315 315 315 316 316 313 308 306 305 306 309 311 310 308 303 297 295 288 275 263 257 253 251 251 251 251 251 251 250 250 249 248 248
177 175 174 174 174 175 175 175 175 174 173 172 169 166 167 170 170 169 170 170 170 175 178 181 186 187 182 178 172 167 205 249 278 286 294 304 308 311 314 316 318 318 316 314 314 313 311 309 309 313 316 317 317 317 318 319 318 314 311 311 312 313 315 312 307 303 300 299 301 298 283 263 253 252 251 250 250 250 250 250 251 251 251 250 250
173 172 172 171 171 173 172 172 173 173 171 170 167 164 165 167 165 166 170 170 169 172 175 177 181 184 183 175 168 183 219 252 291 293 297 308 314 317 320 321 321 320 318 315 313 311 310 311 314 317 318 318 318 318 319 319 318 317 316 316 317 317 315 312 306 303 302 302 303 305 300 284 266 256 253 254 253 252 251 251 251 251 251 252 251
171 171 170 169 168 168 168 169 171 171 171 170 167 165 164 164 163 166 169 170 170 171 173 177 181 180 176 174 176 190 216 245 290 312 313 313 316 322 324 324 322 321 319 317 313 311 312 315 318 319 319 319 320 320 320 319 320 321 321 321 320 318 315 312 310 306 305 305 304 305 307 305 294 280 267 261 257 255 251 249 250 252 253 253 253
171 170 168 167 166 165 165 166 167 168 169 170 170 169 167 165 164 166 169 171 172 172 171 174 177 175 172 174 182 193 212 236 277 324 327 320 317 323 326 325 324 322 321 319 316 315 317 319 319 319 318 319 320 319 318 319 321 324 325 325 321 318 316 316 314 311 308 306 306 305 305 307 308 303 290 273 258 251 250 248 248 249 250 251 254
171 169 168 167 166 166 165 164 165 165 166 167 169 170 169 167 165 167 170 171 171 172 172 173 174 172 170 175 182 188 204 225 258 308 323 325 324 328 329 328 327 325 324 323 322 321 322 322 321 319 319 319 319 319 319 320 322 324 325 327 324 320 318 318 316 314 310 307 306 306 305 304 305 307 306 292 267 253 248 245 245 247 247 247 251
172 172 171 169 168 168 167 164 164 164 165 167 168 168 167 168 168 172 175 175 172 171 172 174 174 172 170 173 177 184 203 226 254 299 318 328 333 335 335 333 332 331 330 328 327 328 330 330 327 324 324 323 323 323 324 324 324 324 325 327 327 324 320 320 320 319 315 310 308 307 307 307 306 307 310 307 292 274 258 246 243 248 249 247 247
174 173 173 171 169 169 168 166 165 164 164 168 170 170 170 171 172 175 180 182 179 175 172 172 172 170 170 171 172 177 192 219 273 310 322 331 339 340 340 337 336 335 333 331 331 335 338 336 331 328 327 327 326 326 327 327 326 326 326 327 328 327 324 323 323 323 320 316 311 309 309 309 309 310 310 308 303 296 282 263 251 250 250 247 244
174 175 175 174 172 170 168 167 166 164 163 164 163 165 168 172 174 175 177 178 178 175 170 168 168 167 168 170 173 178 188 218 294 319 334 343 347 348 346 344 341 341 340 338 340 344 342 335 329 328 328 328 327 327 328 329 327 326 327 327 328 328 327 324 323 323 322 318 312 310 313 311 309 309 308 304 301 301 296 283 265 252 248 249 247
174 179 180 178 175 171 168 166 165 164 163 161 158 156 157 161 171 176 172 167 167 168 165 162 164 165 164 163 168 177 190 213 277 334 1 359 357 357 356 356 355 352 349 349 349 349 343 332 327 328 328 327 327 327 327 328 326 325 326 327 327 328 326 323 322 322 322 318 313 313 315 312 306 304 304 302 299 298 298 293 278 257 244 243 245
178 183 184 180 177 173 168 165 164 161 159 157 156 154 151 150 154 165 169 167 167 166 163 160 163 164 163 158 154 155 166 173 146 65 38 19 10 5 2 6 7 0 359 2 359 351 342 331 325 326 327 326 327 328 327 327 325 325 326 325 325 326 325 321 320 320 320 318 316 317 317 313 308 305 303 301 300 296 294 294 287 270 248 238 239
183 183 182 179 176 174 169 165 163 160 157 156 155 154 155 154 152 154 162 166 164 161 159 159 159 158 157 156 150 145 147 145 119 88 59 33 19 10 7 15 17 8 7 10 3 348 337 330 324 323 325 325 326 327 327 326 325 325 325 324 323 324 322 319 318 319 320 319 318 318 317 313 310 307 303 300 298 295 292 291 291 283 265 245 238
187 184 180 177 174 173 170 167 163 161 159 158 158 159 160 160 155 152 155 160 160 157 154 155 156 154 152 150 146 144 141 129 113 97 66 41 26 12 8 20 28 22 16 12 1 344 335 330 324 324 327 327 327 328 327 326 325 324 324 324 323 323 323 321 319 321 323 322 320 319 318 315 312 308 304 301 299 296 291 288 290 289 278 257 243
189 185 181 178 175 172 171 169 164 161 160 160 161 161 161 162 160 157 158 160 159 155 154 154 155 156 156 150 139 135 134 122 107 95 71 50 26 359 2 17 23 18 13 7 357 344 335 328 324 326 329 329 329 329 326 325 324 324 324 324 323 324 325 323 321 322 324 324 322 320 319 317 314 309 303 299 297 296 292 288 288 290 288 279 263
187 183 179 179 177 174 172 170 165 162 160 160 162 162 160 161 163 162 161 160 157 155 158 158 155 154 159 157 148 136 124 112 107 102 87 64 22 6 17 26 21 10 1 356 350 340 333 329 328 330 332 331 330 328 326 324 324 323 323 323 322 323 324 322 321 324 326 324 322 322 321 318 316 312 306 299 296 295 292 288 287 287 286 285 279
185 182 180 180 179 175 172 169 164 161 160 159 159 159 158 160 162 160 159 160 158 156 158 160 158 157 160 164 161 151 135 126 130 127 110 80 38 29 34 34 22 4 352 348 343 335 332 333 335 335 334 332 330 328 326 325 324 323 324 324 323 323 322 320 322 326 326 323 323 324 323 320 317 313 307 301 298 297 292 287 285 284 283 284 282
187 184 182 181 177 171 167 164 162 161 160 159 158 156 155 157 160 159 158 157 156 156 157 159 161 160 158 160 163 158 148 145 147 139 113 80 51 39 37 32 21 6 352 346 343 337 334 336 338 337 335 333 330 328 326 325 325 325 324 324 324 323 322 322 326 329 328 326 326 326 324 322 318 314 308 300 296 295 292 287 284 283 284 284 282
188 185 181 177 171 166 162 161 161 161 159 158 156 155 154 155 157 158 157 155 154 155 156 157 159 159 156 156 157 154 149 143 137 126 103 78 59 45 38 30 19 8 356 348 345 341 338 340 341 340 337 335 332 330 328 326 325 325 325 324 324 324 323 325 330 332 331 329 327 327 326 323 319 315 309 299 292 292 292 289 285 282 281 281 278
183 180 176 171 167 165 162 159 159 159 159 158 156 154 154 156 157 158 157 154 153 156 156 155 155 155 153 151 148 145 141 136 130 126 111 86 67 52 40 29 17 7 357 349 347 345 343 344 344 341 338 337 334 332 331 329 327 326 325 325 324 322 322 326 331 333 332 330 328 327 326 325 322 318 311 303 298 297 295 290 285 280 276 273 273
176 173 171 168 165 163 159 157 158 159 159 158 156 153 153 155 155 156 156 155 155 155 153 152 151 149 145 142 143 146 146 141 136 131 110 86 68 51 40 29 16 7 357 351 350 350 349 348 346 343 340 339 336 334 333 332 329 327 326 326 325 322 321 326 332 334 333 332 330 328 327 326 324 321 314 310 306 301 296 290 284 279 276 272 271
169 168 167 167 164 160 156 155 156 156 154 155 155 154 153 153 154 156 157 156 154 151 147 146 149 148 142 139 151 163 160 149 140 128 104 83 64 48 39 28 16 7 359 354 354 354 351 350 348 345 342 340 338 337 335 332 331 329 327 327 327 324 323 327 333 335 336 333 331 330 328 327 326 323 318 314 310 302 297 294 288 282 279 277 273
166 165 164 163 161 158 154 152 152 152 153 154 155 154 153 153 153 155 155 153 152 150 147 147 151 150 144 144 158 167 163 152 139 122 101 82 62 46 35 23 14 8 3 0 0 358 355 352 350 348 346 344 343 340 337 333 332 330 329 328 327 325 324 328 334 337 337 334 332 331 330 329 329 327 323 319 316 309 303 302 297 289 285 283 278
161 159 157 156 155 154 153 153 154 154 154 154 153 152 151 151 151 152 152 151 151 151 150 151 154 154 151 155 164 167 161 150 137 121 105 86 66 48 31 16 10 7 5 5 5 3 359 356 353 351 351 351 350 347 343 339 337 334 332 330 328 326 327 332 337 339 338 336 333 333 332 331 331 331 328 326 323 318 311 308 305 298 292 288 283
157 154 152 151 152 153 153 153 152 151 150 149 148 147 149 150 150 151 152 151 151 152 152 154 156 157 157 160 164 164 156 146 135 124 112 93 70 49 26 12 7 5 4 5 5 5 3 0 356 353 353 353 354 352 348 344 342 340 337 335 332 329 331 336 340 341 341 338 336 334 332 332 333 332 331 329 325 320 313 308 304 300 295 290 285
155 152 151 150 150 151 152 151 149 148 148 148 147 146 148 150 152 153 153 153 153 154 154 155 156 158 160 162 162 159 152 144 135 127 117 98 77 49 16 5 3 2 3 4 4 5 6 3 359 355 354 354 354 353 349 346 345 344 342 341 338 336 336 340 344 345 344 342 339 336 334 334 333 332 332 330 325 319 315 309 304 301 297 291 288
153 151 151 150 150 151 151 149 147 147 147 148 148 147 149 151 152 153 154 154 154 154 155 155 157 158 160 161 158 153 147 141 134 127 118 100 78 40 7 0 359 359 360 2 3 4 6 4 1 359 356 355 356 354 350 348 346 345 345 345 344 341 340 344 348 349 347 344 342 340 337 336 336 335 334 332 327 321 319 315 310 307 304 298 295
154 153 152 151 151 150 148 147 146 146 146 147 148 148 149 151 152 153 153 154 155 155 155 156 157 158 158 157 153 148 143 137 131 124 116 103 76 33 9 3 0 357 357 359 1 4 5 5 3 2 360 359 359 356 352 349 348 347 346 347 346 344 344 347 351 351 350 348 346 344 342 340 339 338 337 335 330 325 321 320 319 317 314 310 305
154 152 149 148 148 148 147 146 146 147 147 147 147 147 149 151 152 153 154 155 155 156 156 156 156 157 156 152 149 145 140 134 128 120 112 100 71 36 18 10 4 359 358 359 0 2 4 5 4 4 3 2 1 359 355 352 350 347 346 346 346 345 347 351 353 353 353 351 349 347 346 344 342 341 341 339 337 332 327 326 327 324 319 316 314
150 148 145 143 143 144 144 143 144 145 146 147 147 148 150 151 152 153 155 155 154 155 157 156 155 155 153 150 148 144 137 131 126 119 109 90 60 39 23 12 8 5 3 2 1 2 4 5 4 4 5 5 4 2 358 355 352 349 346 345 345 347 349 352 354 355 355 355 352 350 349 347 345 345 345 343 343 342 338 335 335 332 325 321 320
142 142 140 139 139 141 142 142 142 144 146 147 148 149 150 151 153 154 156 155 155 156 156 155 154 153 151 149 146 141 134 130 124 117 106 79 50 37 23 13 8 6 4 4 3 3 5 5 4 5 6 6 5 3 1 358 355 353 348 344 345 348 351 354 355 356 357 357 356 353 352 350 349 349 348 347 347 347 345 342 340 337 332 327 325